[[{"header":{"parameterUnit":"m.s-1","parameterCategory":1,"la1":30.2991,"la2":30.254,"lo1":-89.0895,"lo2":-89.0444,"dy":0.0017,"dx":0.0017,"nx":28,"ny":28,"refTime":"2025-04-15T03:00:00:Z","depth":0,"parameterNumber":2,"parameterNumberName":"U-component_of_WINDS"},"data":[0,0,0,0,0,0,0,0,0,0,0,0,0,0,0,0,0,0,0,0,0,0,0,0,0,0,0,0,0,0,0,0,0,0,0,0,0,0,0,0,0,0,0,0,0,0,0,0,0,0,0,0,0,0,0,0,0,0,4.5447,4.5449,0,4.5632,4.5634,4.5636,4.559,4.5587,4.5583,4.558,4.5774,4.5783,4.5791,0,0,0,0,0,0,0,0,0,0,0,0,0,4.5061,4.5068,4.5447,4.5449,4.5452,4.5631,4.5634,4.5636,4.5591,4.5587,4.5582,4.5578,4.5772,4.5782,4.5792,0,0,0,0,0,0,0,0,0,0,0,0,0,4.5235,4.507,4.5447,4.5451,4.5453,4.5631,4.5634,4.5637,4.5592,4.5586,4.5581,4.5576,4.5768,4.5781,4.5793,4.5981,0,0,4.5832,4.5838,0,0,0,0,0,0,0,0,4.5225,4.525,4.5448,4.5451,4.5453,4.5582,4.5569,4.5753,4.5593,4.5539,4.558,4.5573,4.5715,4.5732,4.5779,4.599,4.5998,4.5834,4.5841,4.5847,4.585,0,0,0,0,0,0,0,4.5213,4.5241,4.552,4.5451,4.5454,4.5445,4.5464,4.5603,4.5656,4.5544,4.5541,4.5563,4.5716,4.5766,4.5783,4.6001,4.5833,4.5845,4.5852,4.5858,4.6375,4.6381,0,0,0,0,0,0,4.5198,4.5232,4.5514,4.5526,4.5324,4.5456,4.5477,4.5547,4.5654,4.5665,4.5567,4.556,4.5747,4.5768,4.579,4.6016,4.5847,4.5859,4.5866,4.6369,4.6377,4.6383,0,0,0,0,0,0,4.519,4.5224,4.5507,4.5378,4.5413,4.5468,4.5547,4.5553,4.5604,4.5672,4.5681,4.5609,4.5744,4.5772,4.5933,4.6022,4.5865,4.5876,4.6362,4.6372,4.638,4.6471,0,0,0,0,0,0,4.5179,4.5221,4.5292,4.538,4.542,4.5646,4.5552,4.5561,4.5625,4.5617,4.5714,4.5724,4.5742,4.5914,4.5946,4.6037,4.5886,4.6354,4.6366,4.6377,4.646,4.6482,4.65,0,0,0,0,0,4.5166,4.5311,4.5296,4.533,4.5509,4.5651,4.5675,4.569,4.5632,4.5705,4.5748,4.5721,4.6007,4.5931,4.5966,4.6063,4.6349,4.6363,4.6376,4.6451,4.6477,4.65,0,0,0,0,0,0,4.5234,4.5323,4.5307,4.5485,4.5561,4.5643,4.5735,4.5718,4.5813,4.5802,4.5819,4.5841,4.6006,4.605,4.5964,4.625,4.617,4.6191,4.6215,4.624,4.626,4.6246,4.5897,0,0,0,0,0,4.527,4.5376,4.5448,4.5599,4.5637,4.568,4.5742,4.5747,4.5827,4.586,4.5915,4.5996,4.6103,4.6174,4.6277,4.6466,4.6487,4.655,4.657,4.6586,4.6605,4.6708,4.6737,4.6428,4.6428,4.6428,0,0,4.5345,4.5406,4.5473,4.5614,4.5673,4.5784,4.5707,4.5828,4.5911,4.5879,4.6034,4.6078,4.6169,4.6344,4.6425,4.6387,4.6694,4.6603,4.6616,4.6626,4.6725,4.6754,4.678,4.6437,4.6436,4.6434,0,0,4.5539,4.5595,4.5727,4.5787,4.5878,4.5905,4.5936,4.6022,4.6049,4.6205,4.6183,4.6283,4.6468,4.6534,4.6591,4.681,4.6789,4.6843,4.6949,4.7049,4.7074,4.7095,4.7174,4.7201,4.6861,4.6861,4.6861,0,4.5621,4.5786,4.5797,4.592,4.5983,4.5957,4.6091,4.615,4.627,4.6315,4.627,4.6502,4.6561,4.6752,4.6805,4.6853,4.689,4.6832,4.7069,4.7091,4.7111,4.7186,4.7215,4.6867,4.6867,4.6866,4.6865,0,4.5883,4.5998,4.6094,4.6208,4.6282,4.641,4.6442,4.6516,4.6514,4.6547,4.6706,4.6776,4.6893,4.6938,4.6939,4.713,4.7104,4.7064,4.6984,4.7146,4.7217,4.7246,4.6876,4.6874,4.6872,4.687,0,0,4.6126,4.6244,4.6279,4.6331,4.6428,4.6518,4.6645,4.6757,4.6821,4.6905,4.7012,4.7169,4.7133,4.7199,4.7207,4.7295,4.7464,4.7244,4.7247,4.7283,4.7679,4.7708,4.7741,4.745,4.7455,4.746,4.7671,0,4.6329,4.655,4.6564,4.6766,4.6872,4.6849,4.6959,4.7032,4.7066,4.7163,4.72,4.7311,4.7255,4.7294,4.738,4.7425,4.7543,4.741,4.7552,4.7557,4.753,4.7778,4.781,4.8006,4.7699,4.7704,4.7707,0,4.6595,4.6684,4.6896,4.6978,4.7023,4.7122,4.7226,4.7319,4.7401,4.7419,4.7492,4.7488,4.762,4.7534,4.7717,4.7626,4.7685,4.7716,4.7724,4.7738,4.7642,4.78,4.8069,4.8098,4.7751,4.7747,4.7744,0,4.6751,4.6925,4.7074,4.7119,4.7218,4.7289,4.7334,4.741,4.7477,4.7568,4.7612,4.7719,4.7777,4.786,4.7885,4.7821,4.8068,4.7985,4.8088,4.8088,4.8142,4.8138,4.8425,4.8179,4.8179,4.8178,4.8178,0,4.6976,4.7107,4.7145,4.7237,4.7383,4.7398,4.7543,4.7584,4.7652,4.7753,4.774,4.7835,4.7861,4.7962,4.7982,4.8131,4.8158,4.8177,4.8181,4.8179,4.8176,4.8218,4.8205,4.8186,4.8184,4.8183,4.8181,0,4.7175,4.7206,4.7367,4.7448,4.7471,4.7575,4.7645,4.7734,4.7765,4.7892,4.7923,4.7973,4.8091,4.8123,4.8265,4.8278,4.8453,4.8445,4.8425,4.8425,4.8527,4.8517,4.885,4.8895,4.862,4.8623,4.8625,0,4.7317,4.7417,4.7507,4.7572,4.762,4.7726,4.7793,4.7812,4.7883,4.7984,4.8061,4.8176,4.8269,4.8458,4.8509,4.8617,4.8611,4.872,4.8627,4.8621,4.8613,4.8607,4.8617,4.8738,4.8741,4.8743,4.8745,0,4.7565,4.7576,4.7672,4.7774,4.7855,4.7937,4.8015,4.807,4.81,4.8181,4.83,4.8372,4.8515,4.863,4.8739,4.8788,4.8773,4.8774,4.8804,4.8802,4.8787,4.8797,4.8473,4.8767,4.8764,4.8763,4.8762,4.8761,4.7741,4.7828,4.7905,4.8013,4.8074,4.8147,4.8235,4.8276,4.8375,4.8492,4.8497,4.8626,4.8707,4.8852,4.8906,4.9008,4.8976,4.9019,4.903,4.904,4.9049,4.877,4.9028,4.9028,4.9027,4.9027,4.9026,0,4.7989,4.8036,4.8136,4.8245,4.833,4.8306,4.8392,4.8466,4.8579,4.8654,4.8745,4.8882,4.8993,4.9052,4.9163,4.9234,4.923,4.9262,4.9257,4.9269,4.9071,4.9034,4.9264,4.9264,4.9264,4.9263,4.9263,4.9263,4.8128,4.8274,4.8293,4.847,4.8518,4.8642,4.8693,4.8762,4.8822,4.8974,4.9066,4.9102,4.9172,4.9287,4.9389,4.9403,4.9445,4.9482,4.9493,4.9307,4.9283,4.926,4.9225,4.9491,4.9491,4.9682,4.9684,4.9685]},{"header":{"parameterUnit":"m.s-1","parameterCategory":1,"la1":30.2991,"la2":30.254,"lo1":-89.0895,"lo2":-89.0444,"dy":0.0017,"dx":0.0017,"nx":28,"ny":28,"refTime":"2025-04-15T03:00:00:Z","depth":0,"parameterNumber":3,"parameterNumberName":"V-component_of_WINDS"},"data":[0,0,0,0,0,0,0,0,0,0,0,0,0,0,0,0,0,0,0,0,0,0,0,0,0,0,0,0,0,0,0,0,0,0,0,0,0,0,0,0,0,0,0,0,0,0,0,0,0,0,0,0,0,0,0,0,0,0,-0.1203,-0.1203,0,-0.1239,-0.1239,-0.1239,-0.1253,-0.1253,-0.1253,-0.1253,-0.1292,-0.1293,-0.1294,0,0,0,0,0,0,0,0,0,0,0,0,0,-0.1148,-0.1149,-0.1203,-0.1203,-0.1203,-0.1238,-0.1239,-0.1239,-0.1253,-0.1253,-0.1253,-0.1253,-0.1291,-0.1293,-0.1294,0,0,0,0,0,0,0,0,0,0,0,0,0,-0.1177,-0.1149,-0.1202,-0.1215,-0.1216,-0.1238,-0.1239,-0.124,-0.1253,-0.1253,-0.1253,-0.1253,-0.1291,-0.1293,-0.1294,-0.1308,0,0,-0.1299,-0.13,0,0,0,0,0,0,0,0,-0.1175,-0.1179,-0.1212,-0.1214,-0.1215,-0.1241,-0.1234,-0.1262,-0.1254,-0.1239,-0.1253,-0.1253,-0.1275,-0.1278,-0.1285,-0.1309,-0.1311,-0.13,-0.1301,-0.1301,-0.1302,0,0,0,0,0,0,0,-0.1173,-0.1177,-0.1217,-0.1213,-0.1215,-0.1219,-0.1223,-0.1239,-0.1258,-0.1241,-0.1242,-0.1246,-0.1276,-0.1284,-0.1286,-0.1312,-0.1299,-0.1301,-0.1302,-0.1303,-0.135,-0.135,0,0,0,0,0,0,-0.1169,-0.1176,-0.1216,-0.1218,-0.1194,-0.122,-0.1224,-0.1233,-0.1258,-0.1261,-0.1246,-0.1246,-0.1281,-0.1284,-0.1288,-0.1306,-0.1301,-0.1303,-0.1304,-0.135,-0.135,-0.135,0,0,0,0,0,0,-0.1168,-0.1172,-0.1214,-0.1197,-0.1203,-0.1221,-0.1231,-0.1234,-0.1242,-0.1261,-0.1265,-0.125,-0.1281,-0.1285,-0.1303,-0.1307,-0.1304,-0.1305,-0.1349,-0.135,-0.135,-0.1341,0,0,0,0,0,0,-0.1166,-0.1172,-0.1176,-0.1197,-0.1204,-0.1228,-0.1231,-0.1235,-0.1244,-0.1245,-0.1266,-0.127,-0.1281,-0.13,-0.1304,-0.1309,-0.1306,-0.1349,-0.135,-0.135,-0.1341,-0.1341,-0.1341,0,0,0,0,0,-0.1164,-0.1173,-0.1177,-0.1181,-0.121,-0.1228,-0.1232,-0.1244,-0.1244,-0.125,-0.1263,-0.1269,-0.1306,-0.1302,-0.1307,-0.1312,-0.1349,-0.1349,-0.135,-0.1341,-0.1341,-0.1341,0,0,0,0,0,0,-0.1152,-0.1175,-0.118,-0.1195,-0.121,-0.123,-0.1237,-0.1244,-0.1258,-0.1259,-0.1274,-0.1279,-0.1295,-0.1305,-0.13,-0.1327,-0.1328,-0.133,-0.1319,-0.132,-0.132,-0.1317,-0.1308,0,0,0,0,0,-0.1152,-0.1164,-0.1184,-0.1195,-0.1202,-0.1218,-0.1227,-0.1235,-0.1251,-0.1257,-0.1271,-0.1286,-0.1302,-0.1311,-0.1326,-0.1343,-0.1348,-0.1349,-0.1349,-0.1349,-0.135,-0.136,-0.1361,-0.1352,-0.1352,-0.1352,0,0,-0.115,-0.1164,-0.1171,-0.1193,-0.1205,-0.1218,-0.1223,-0.1237,-0.1247,-0.1259,-0.1276,-0.1287,-0.1306,-0.1323,-0.1331,-0.1332,-0.1354,-0.135,-0.1349,-0.1351,-0.1361,-0.1362,-0.1363,-0.1352,-0.1352,-0.1352,0,0,-0.1154,-0.1166,-0.1177,-0.1189,-0.1207,-0.1218,-0.122,-0.124,-0.1248,-0.1265,-0.1275,-0.1288,-0.1313,-0.1326,-0.1336,-0.1346,-0.1353,-0.135,-0.135,-0.136,-0.1361,-0.1362,-0.1365,-0.1367,-0.1352,-0.1351,-0.1351,0,-0.115,-0.1169,-0.1182,-0.1195,-0.1205,-0.1216,-0.1228,-0.124,-0.1262,-0.1269,-0.1269,-0.1302,-0.1315,-0.1336,-0.1338,-0.1346,-0.135,-0.1348,-0.136,-0.136,-0.1361,-0.1365,-0.1367,-0.1351,-0.1351,-0.1351,-0.1351,0,-0.1164,-0.1177,-0.1184,-0.1205,-0.1216,-0.1228,-0.1244,-0.1253,-0.1261,-0.1272,-0.129,-0.1306,-0.1325,-0.1331,-0.1338,-0.1353,-0.1353,-0.1356,-0.1358,-0.1362,-0.1366,-0.1367,-0.1351,-0.1351,-0.1351,-0.1351,0,0,-0.1161,-0.1189,-0.1191,-0.1201,-0.1222,-0.1233,-0.1246,-0.1264,-0.1272,-0.1288,-0.13,-0.1322,-0.1325,-0.1336,-0.1346,-0.1355,-0.1362,-0.1357,-0.1358,-0.1358,-0.1379,-0.1376,-0.1378,-0.1367,-0.1367,-0.1367,-0.1378,0,-0.1168,-0.1191,-0.1203,-0.1222,-0.1235,-0.1247,-0.1259,-0.1273,-0.1285,-0.1298,-0.1311,-0.1326,-0.1329,-0.1336,-0.1345,-0.1359,-0.1367,-0.1359,-0.1379,-0.1379,-0.1374,-0.138,-0.1377,-0.1386,-0.138,-0.138,-0.138,0,-0.1178,-0.1193,-0.1213,-0.1233,-0.1239,-0.1249,-0.1267,-0.1279,-0.1297,-0.1304,-0.1317,-0.1327,-0.1342,-0.1343,-0.1365,-0.1359,-0.1369,-0.1377,-0.1378,-0.138,-0.138,-0.1382,-0.1389,-0.139,-0.1383,-0.1382,-0.1382,0,-0.1174,-0.1199,-0.1214,-0.1222,-0.1246,-0.1253,-0.1264,-0.1281,-0.1291,-0.1307,-0.1314,-0.1332,-0.1342,-0.1356,-0.137,-0.1369,-0.1391,-0.1393,-0.1399,-0.1398,-0.1403,-0.1402,-0.1411,-0.1409,-0.1409,-0.1409,-0.1409,0,-0.1181,-0.1192,-0.1213,-0.1222,-0.1236,-0.1251,-0.1265,-0.1276,-0.1291,-0.1304,-0.1315,-0.1327,-0.1345,-0.136,-0.1371,-0.1389,-0.1393,-0.14,-0.1403,-0.1399,-0.1398,-0.1405,-0.1405,-0.1409,-0.1409,-0.1409,-0.1409,0,-0.1178,-0.1192,-0.121,-0.1231,-0.1237,-0.1246,-0.1265,-0.1275,-0.1287,-0.1302,-0.1307,-0.1326,-0.1344,-0.1359,-0.1383,-0.1391,-0.1408,-0.1412,-0.1402,-0.1404,-0.1409,-0.1408,-0.1422,-0.1425,-0.1421,-0.1421,-0.1421,0,-0.1181,-0.1191,-0.1213,-0.1222,-0.1232,-0.1246,-0.1256,-0.1271,-0.1282,-0.1303,-0.1311,-0.1329,-0.1344,-0.1372,-0.1389,-0.1407,-0.1411,-0.1415,-0.1414,-0.141,-0.1411,-0.1411,-0.1412,-0.1415,-0.1415,-0.1415,-0.1415,0,-0.1185,-0.1192,-0.1206,-0.1223,-0.1235,-0.1249,-0.1264,-0.1271,-0.1289,-0.13,-0.1318,-0.133,-0.1354,-0.1372,-0.1393,-0.1404,-0.1413,-0.1415,-0.1417,-0.1413,-0.1407,-0.1411,-0.1402,-0.1414,-0.1414,-0.1414,-0.1414,-0.1414,-0.1186,-0.1195,-0.1212,-0.1227,-0.124,-0.1254,-0.1264,-0.1277,-0.1292,-0.1312,-0.1321,-0.1339,-0.1357,-0.1385,-0.1397,-0.1412,-0.1414,-0.1417,-0.1418,-0.1419,-0.1418,-0.1405,-0.1416,-0.1416,-0.1416,-0.1416,-0.1416,0,-0.119,-0.1202,-0.1216,-0.1236,-0.1249,-0.1255,-0.1272,-0.1282,-0.1298,-0.1314,-0.1329,-0.135,-0.1368,-0.1386,-0.1405,-0.1414,-0.1418,-0.1418,-0.1418,-0.1421,-0.1415,-0.1411,-0.1414,-0.1414,-0.1414,-0.1414,-0.1414,-0.1414,-0.1194,-0.121,-0.1219,-0.1241,-0.1253,-0.127,-0.1279,-0.1292,-0.1305,-0.1328,-0.1343,-0.1354,-0.1371,-0.1392,-0.1409,-0.1414,-0.1421,-0.142,-0.1426,-0.1421,-0.1421,-0.1421,-0.1417,-0.1421,-0.1421,-0.143,-0.143,-0.143]}]]